Seattle Boeing, WA

10:27 AM PDT on March 28, 2017 (GMT -0700)
Boeing Field-King County International

Weather History for KBFI - January, 2014

Change the Weather History Date:

Thursday, January 16, 2014

  Actual Average Record
Temperature  
Mean Temperature 44 °F -  
Max Temperature 45 °F 46 °F 57 °F (2011)
Min Temperature 42 °F 37 °F 13 °F (1950)
Degree Days  
Heating Degree Days 22    
Moisture  
Dew Point 39 °F    
Average Humidity 85    
Maximum Humidity 89    
Minimum Humidity 80    
Precipitation  
Precipitation 0.00 in - - ()
Sea Level Pressure  
Sea Level Pressure 30.46 in    
Wind  
Wind Speed 3 mph (NNE)    
Max Wind Speed 6 mph    
Max Gust Speed -    
Visibility 6 miles    
Events      
Averages and records for this station are not official NWS values.
T = Trace of Precipitation, MM = Missing Value Source: NWS Daily Summary

Daily Weather History Graph

Daily Weather History Graph

Search for Another Location

Airport or City:

Trip Planner

Search our weather history database for the weather conditions in past years. The results will help you decide how hot, cold, wet, or windy it might be!

Date:

Astronomy

Jan. 16, 2014 Rise Set
Actual Time 7:51 AM PST 4:46 PM PST
Civil Twilight 7:17 AM PST 5:21 PM PST
Nautical Twilight 6:38 AM PST 5:59 PM PST
Astronomical Twilight 6:02 AM PST 6:36 PM PST
Moon 5:51 PM PST (1/16) 7:42 AM PST (1/16)
Length of Visible Light 10h 04m
Length of Day
8h 55m
Full, 100% of the Moon is Illuminated
Jan 16
Full
Jan 23
Last Quarter
Jan 30
New
Feb 6
First Quarter
Feb 14
Full

Hourly Weather History & Observations

Time (PST) Temp. Windchill Dew Point Humidity Pressure Visibility Wind Dir Wind Speed Gust Speed Precip Events Conditions
12:53 AM 44.1 °F 42.5 °F 41.0 °F 89% 30.51 in 4.0 mi Variable 3.5 mph - N/A   Overcast
1:53 AM 44.1 °F 40.8 °F 39.9 °F 85% 30.51 in 4.0 mi NNW 5.8 mph - N/A   Overcast
2:53 AM 43.0 °F 40.3 °F 39.9 °F 89% 30.51 in 5.0 mi Variable 4.6 mph - N/A   Overcast
3:53 AM 43.0 °F - 39.9 °F 89% 30.51 in 5.0 mi Calm Calm - N/A   Overcast
4:53 AM 43.0 °F - 39.9 °F 89% 30.50 in 4.0 mi Calm Calm - N/A   Overcast
5:24 AM 42.8 °F - 39.2 °F 87% 30.51 in 2.0 mi Calm Calm - N/A   Overcast
5:53 AM 43.0 °F 40.3 °F 39.9 °F 89% 30.50 in 2.0 mi NE 4.6 mph - N/A   Overcast
6:53 AM 43.0 °F - 39.0 °F 86% 30.50 in 2.0 mi Calm Calm - N/A   Overcast
7:53 AM 43.0 °F - 39.0 °F 86% 30.50 in 1.5 mi Calm Calm - N/A   Overcast
8:53 AM 43.0 °F - 39.9 °F 89% 30.51 in 1.5 mi Calm Calm - N/A   Overcast
9:00 AM 42.8 °F - 39.2 °F 87% 30.51 in 2.0 mi Calm Calm - N/A   Overcast
9:53 AM 43.0 °F - 39.9 °F 89% 30.50 in 1.5 mi Calm Calm - N/A   Overcast
10:53 AM 44.1 °F 42.5 °F 39.0 °F 82% 30.50 in 2.0 mi NE 3.5 mph - N/A   Overcast
11:53 AM 44.1 °F 41.5 °F 39.0 °F 82% 30.48 in 3.0 mi NE 4.6 mph - N/A   Overcast
12:53 PM 44.1 °F 41.5 °F 39.0 °F 82% 30.45 in 10.0 mi East 4.6 mph - N/A   Overcast
1:53 PM 45.0 °F - 39.0 °F 80% 30.43 in 7.0 mi Calm Calm - N/A   Overcast
2:53 PM 45.0 °F 43.5 °F 39.0 °F 80% 30.43 in 10.0 mi Variable 3.5 mph - N/A   Overcast
3:28 PM 44.6 °F - 39.2 °F 81% 30.43 in 10.0 mi Calm Calm - N/A   Overcast
3:53 PM 45.0 °F - 39.0 °F 80% 30.43 in 10.0 mi Calm Calm - N/A   Overcast
4:53 PM 45.0 °F 43.5 °F 39.0 °F 80% 30.43 in 6.0 mi NNW 3.5 mph - N/A   Haze
5:53 PM 44.1 °F 40.8 °F 39.0 °F 82% 30.41 in 10.0 mi NE 5.8 mph - N/A   Overcast
6:53 PM 44.1 °F - 39.0 °F 82% 30.40 in 10.0 mi Calm Calm - N/A   Overcast
7:53 PM 44.1 °F 41.5 °F 39.0 °F 82% 30.39 in 10.0 mi NNW 4.6 mph - N/A   Overcast
8:53 PM 43.0 °F 40.3 °F 39.0 °F 86% 30.39 in 10.0 mi NE 4.6 mph - N/A   Overcast
9:53 PM 44.1 °F - 39.0 °F 82% 30.38 in 8.0 mi Calm Calm - N/A   Overcast
10:53 PM 43.0 °F 41.3 °F 39.0 °F 86% 30.38 in 4.0 mi NE 3.5 mph - N/A   Overcast
11:53 PM 42.1 °F 38.4 °F 39.0 °F 89% 30.37 in 4.0 mi NE 5.8 mph - N/A   Overcast